Location: La Brionne
(46.1728°N, 1.7849°E)
Time: 16:40:00
(UTC+00:00)

KORONAS-FOTON - Pass Details

Date: 16 June 2021
Orbit: 506 x 530 km, 82.4° (Epoch: 04 August)

Event Time Altitude Azimuth Distance (km) Brightness Sun altitude
Exits shadow 21:36:32 - 202° (SSW) 1,775 6.2 -13.8°
Reaches altitude 10° 21:36:38 10° 202° (SSW) 1,734 6.1 -13.8°
Maximum altitude 21:40:22 56° 281° (W) 617 4.4 -14.2°
Drops below altitude 10° 21:44:07 10° 1° (N) 1,737 7.4 -14.5°
Sets 21:46:17 0° 6° (N) 2,625 8.3 -14.7°
